Location: Dodgeville
(42.9600°N, 90.1300°W)
Time: 18:21:40
(UTC-05:00)

Amateur Radio Satellites - All Passes

Search period start: 03 August 2015 17:51
Search period end: 04 August 2015 17:51
Location: Dodgeville, 42.9600°N, 90.1300°W

Satellite Date Start Highest point End Downlink Frequencies (MHz)
Time Altitude Azimuth
AO-7 03 Aug 17:52:35 17:58:38 20° 271° (W) 18:04:16 29.400- 29.500
CUBESAT XI-V 03 Aug 18:04:28 18:06:54 15° 88° (E) 18:09:33 437.345
CUTE-I 03 Aug 18:17:33 18:22:53 73° 74° (ENE) 18:28:15 437.470
HO-68 03 Aug 18:37:16 18:40:31 14° 51° (NE) 18:44:08 435.675
VERMONT LUNAR 03 Aug 18:55:51 18:58:55 47° 172° (S) 19:02:01 437.305
GOMX 1 03 Aug 18:58:28 18:59:51 12° 63° (ENE) 19:01:26 467.674
BRITE-PL 03 Aug 19:00:01 19:03:11 21° 68° (ENE) 19:06:23 437.365/2234.400
Cubesat XI-IV 03 Aug 19:02:46 19:07:55 46° 261° (W) 19:13:04 437.490
SO-50 03 Aug 19:03:03 19:06:57 23° 248° (WSW) 19:10:41 436.795
PCSat 03 Aug 19:04:45 19:09:34 32° 249° (WSW) 19:14:17 145.827
MOZHAYETS 4 03 Aug 19:18:09 19:19:35 11° 299° (WNW) 19:20:47
Cosmos 2499 03 Aug 19:18:43 19:27:33 82° 264° (W) 19:36:25 435.465 / 435.565
ISS 03 Aug 19:23:53 19:25:04 12° 131° (SE) 19:26:22 145.825
CUTE 1.7 + AOD 2 03 Aug 19:31:49 19:33:55 14° 64° (ENE) 19:36:10 437.475
PRISM 03 Aug 19:33:10 19:36:34 25° 95° (E) 19:39:59 437.425
GONETS M04 03 Aug 19:36:16 19:41:51 18° 282° (WNW) 19:46:58
CANX-2 03 Aug 19:39:45 19:42:38 18° 66° (ENE) 19:45:39 2200.000
STRAND 1 03 Aug 19:39:50 19:44:38 40° 98° (E) 19:49:25 437.568
CUBESAT XI-V 03 Aug 19:40:16 19:44:48 58° 287° (WNW) 19:49:18 437.345
PHONESAT 2.4 03 Aug 19:55:30 19:58:41 33° 162° (SSE) 20:01:54 2401.200-2431.200
CINEMA 3 03 Aug 19:58:29 20:00:37 14° 64° (ENE) 20:02:58 145.822/145.860
CUTE-I 03 Aug 20:00:29 20:03:37 15° 272° (W) 20:06:29 437.470
DOVE 4 03 Aug 20:08:11 20:12:00 38° 71° (ENE) 20:15:53 437.250
HO-68 03 Aug 20:20:02 20:27:04 66° 70° (ENE) 20:34:10 435.675
VERMONT LUNAR 03 Aug 20:32:22 20:35:27 49° 188° (S) 20:38:32 437.305
GOMX 1 03 Aug 20:33:23 20:37:34 65° 259° (W) 20:41:42 467.674
BRITE-PL 03 Aug 20:37:40 20:41:37 33° 263° (W) 20:45:25 437.365/2234.400
COMPASS 1 03 Aug 20:37:55 20:41:52 42° 72° (ENE) 20:45:54 437.405
DELFI C3 03 Aug 20:44:44 20:46:36 13° 64° (ENE) 20:48:39 145.870
ZACube-1 03 Aug 20:54:02 20:56:34 16° 64° (ENE) 20:59:18 437.345
SEEDS 03 Aug 20:57:27 21:01:43 88° 79° (E) 21:06:01 437.485
RS-15 03 Aug 20:57:40 21:07:56 52° 113° (ESE) 21:18:39 29.354- 29.394
ISS 03 Aug 20:57:50 21:01:05 87° 319° (NW) 21:04:22 145.825
CUTE 1.7 + AOD 2 03 Aug 21:05:07 21:09:21 61° 259° (W) 21:13:38 437.475
PRISM 03 Aug 21:08:27 21:11:59 27° 292° (WNW) 21:15:25 437.425
FUNcube-1 03 Aug 21:13:24 21:16:47 24° 67° (ENE) 21:20:19 145.935
Cosmos 2499 03 Aug 21:14:08 21:19:34 17° 282° (WNW) 21:24:32 435.465 / 435.565
CANX-2 03 Aug 21:14:10 21:18:16 43° 262° (W) 21:22:24 2200.000
AAUSAT CUBESAT 2 03 Aug 21:16:30 21:20:42 85° 257° (WSW) 21:24:58 437.432
HUMSAT D 03 Aug 21:17:53 21:19:22 12° 63° (ENE) 21:21:02 437.325/437.525
STRAND 1 03 Aug 21:19:25 21:23:40 26° 295° (WNW) 21:27:48 437.568
Oscar 11 03 Aug 21:20:17 21:24:26 48° 73° (ENE) 21:28:40 145.826/435.025
UWE-3 03 Aug 21:22:53 21:26:49 40° 71° (ENE) 21:30:54 435.000/436.395/437.385
PHONESAT 2.4 03 Aug 21:32:56 21:36:24 58° 179° (S) 21:39:52 2401.200-2431.200
CINEMA 3 03 Aug 21:33:20 21:37:24 55° 260° (W) 21:41:37 145.822/145.860
CUBEBUG 2 03 Aug 21:44:19 21:48:32 89° 68° (ENE) 21:52:53 437.445
Cosmos 2491 03 Aug 21:44:47 21:50:17 19° 58° (ENE) 21:56:12 435.465 / 435.565
AISAT 03 Aug 21:45:33 21:46:41 11° 61° (ENE) 21:48:03 437.250
DOVE 4 03 Aug 21:47:09 21:50:00 18° 269° (W) 21:52:46 437.250
M-CUBED/EXP-1 PRIME 03 Aug 21:52:33 21:55:47 18° 95° (E) 21:59:05 437.505
50 SAT 03 Aug 21:53:47 21:55:27 13° 64° (ENE) 21:57:16 437.505
DX 1 03 Aug 21:55:36 21:58:56 22° 66° (ENE) 22:02:20 434.975-435.025
VERMONT LUNAR 03 Aug 22:09:22 22:11:48 20° 204° (SSW) 22:14:13 437.305
HO-68 03 Aug 22:09:43 22:15:25 24° 269° (W) 22:20:56 435.675
COMPASS 1 03 Aug 22:14:53 22:17:47 17° 269° (W) 22:20:33 437.405
BEESAT 2 03 Aug 22:16:35 22:18:25 13° 110° (ESE) 22:20:27 435.950
UNISAT 6 03 Aug 22:16:58 22:18:21 11° 86° (E) 22:20:02 437.425
DELFI C3 03 Aug 22:17:14 22:21:14 57° 260° (W) 22:25:16 145.870
AUBIESAT-1 03 Aug 22:18:26 22:22:30 28° 99° (E) 22:26:27 437.475
VELOX 1 03 Aug 22:20:59 22:24:30 24° 67° (ENE) 22:28:05 145.980
ZACube-1 03 Aug 22:28:27 22:32:33 50° 261° (W) 22:36:46 437.345
ISS 03 Aug 22:35:13 22:37:53 22° 346° (NNW) 22:40:32 145.825
ESTCUBE 1 03 Aug 22:44:04 22:47:59 30° 69° (ENE) 22:51:58 437.505/2401.250
FUNcube-1 03 Aug 22:49:14 22:53:00 30° 265° (W) 22:56:49 145.935
BEESAT 3 03 Aug 22:49:54 22:53:40 38° 117° (ESE) 22:57:29 437.485
HUMSAT D 03 Aug 22:50:25 22:54:33 69° 258° (WSW) 22:58:47 437.325/437.525
TIGRISAT 03 Aug 22:56:55 23:00:58 29° 94° (E) 23:05:06 435.000
UKube-1 03 Aug 22:57:41 23:02:01 89° 256° (WSW) 23:06:21 .
Oscar 11 03 Aug 22:58:09 23:00:57 16° 270° (W) 23:03:35 145.826/435.025
ANTELSAT 03 Aug 22:59:57 23:04:09 32° 95° (E) 23:08:24 437.575/2403.000
UWE-3 03 Aug 23:00:36 23:03:36 18° 270° (W) 23:06:31 435.000/436.395/437.385
RS-15 03 Aug 23:09:45 23:20:26 53° 317° (NW) 23:31:30 29.354- 29.394
PHONESAT 2.4 03 Aug 23:10:50 23:14:09 39° 195° (SSW) 23:17:27 2401.200-2431.200
POLYITAN 1 03 Aug 23:12:42 23:15:15 16° 90° (E) 23:18:00 437.675
AIST 1 03 Aug 23:15:52 23:20:10 87° 82° (E) 23:24:25
AISAT 03 Aug 23:18:16 23:22:40 82° 257° (WSW) 23:27:06 437.250
CUBEBUG 1 03 Aug 23:23:00 23:27:18 62° 74° (ENE) 23:31:36 437.445
50 SAT 03 Aug 23:25:45 23:29:35 55° 260° (W) 23:33:27 437.505
M-CUBED/EXP-1 PRIME 03 Aug 23:26:11 23:30:53 54° 293° (WNW) 23:35:26 437.505
POPSAT HIP 1 03 Aug 23:27:55 23:31:14 22° 93° (E) 23:34:40 437.405
DX 1 03 Aug 23:31:00 23:35:00 35° 263° (W) 23:39:00 434.975-435.025
QB50P2 03 Aug 23:36:07 23:39:49 28° 95° (E) 23:43:34 145.880/145.840
Cosmos 2491 03 Aug 23:40:01 23:48:47 84° 81° (E) 23:57:32 435.465 / 435.565
SPROUT 03 Aug 23:47:38 23:51:28 34° 70° (ENE) 23:55:21 437.525
TISAT 1 03 Aug 23:48:04 23:51:13 22° 67° (ENE) 23:54:27 437.305
UNISAT 6 03 Aug 23:51:03 23:55:47 78° 285° (WNW) 00:00:29 437.425
BEESAT 2 03 Aug 23:51:57 23:56:01 63° 306° (NW) 00:00:08 435.950
AUBIESAT-1 03 Aug 23:52:53 23:57:12 34° 296° (WNW) 00:01:20 437.475
DUCHIFAT 1 03 Aug 23:56:53 00:00:57 44° 99° (E) 00:05:03 145.980
VELOX 1 03 Aug 23:56:54 00:00:55 33° 263° (W) 00:04:54 145.980
YUBILEINY 04 Aug 00:01:03 00:09:16 50° 90° (E) 00:17:38 435.215
NANOSAT C BR1 04 Aug 00:02:26 00:06:37 53° 100° (E) 00:10:47 145.865
QB50P1 04 Aug 00:02:29 00:06:40 54° 100° (E) 00:10:51 145.935-145.965
AIST 2 04 Aug 00:07:25 00:11:26 43° 118° (ESE) 00:15:31 435.215
ISS 04 Aug 00:12:45 00:15:07 18° 6° (N) 00:17:29 145.825
ESTCUBE 1 04 Aug 00:20:55 00:24:50 28° 265° (W) 00:28:43 437.505/2401.250
BEESAT 3 04 Aug 00:28:19 00:31:43 24° 315° (NW) 00:35:05 437.485
TIGRISAT 04 Aug 00:33:32 00:37:43 31° 291° (WNW) 00:41:49 435.000
SWISSCUBE 04 Aug 00:34:54 00:37:40 16° 62° (ENE) 00:40:37 437.505
ANTELSAT 04 Aug 00:36:48 00:40:51 29° 292° (WNW) 00:44:50 437.575/2403.000
O/OREOS (USA 219) 04 Aug 00:46:47 00:50:39 30° 105° (ESE) 00:54:38 437.305
POLYITAN 1 04 Aug 00:47:20 00:51:28 47° 288° (WNW) 00:55:35 437.675
PHONESAT 2.4 04 Aug 00:49:50 00:51:35 13° 210° (SSW) 00:53:15 2401.200-2431.200
BUGSAT 1 04 Aug 00:50:38 00:54:43 70° 284° (WNW) 00:58:48 437.445
ITUPSAT 1 04 Aug 00:56:24 01:00:03 23° 65° (ENE) 01:03:50 437.325
CUBEBUG 1 04 Aug 01:02:11 01:04:08 12° 272° (W) 01:05:52 437.445
POPSAT HIP 1 04 Aug 01:03:20 01:07:11 33° 290° (WNW) 01:11:00 437.405
QB50P2 04 Aug 01:12:02 01:15:38 26° 292° (WNW) 01:19:11 145.880/145.840
Cosmos 2504 04 Aug 01:12:45 01:16:03 14° 77° (ENE) 01:19:55 435.465 / 435.565
TISAT 1 04 Aug 01:23:00 01:26:49 34° 263° (W) 01:30:37 437.305
SPROUT 04 Aug 01:24:17 01:27:38 22° 267° (W) 01:30:56 437.525
RS-15 04 Aug 01:27:24 01:36:21 26° 349° (NNW) 01:45:31 29.354- 29.394
DUCHIFAT 1 04 Aug 01:33:33 01:36:27 18° 295° (WNW) 01:39:14 145.980
BEESAT 2 04 Aug 01:33:49 01:34:57 11° 327° (NNW) 01:35:56 435.950
Oscar 19 04 Aug 01:35:41 01:39:40 22° 92° (E) 01:43:45 437.125/150
Cosmos 2491 04 Aug 01:38:38 01:44:41 20° 280° (W) 01:50:20 435.465 / 435.565
NANOSAT C BR1 04 Aug 01:39:30 01:42:04 15° 295° (WNW) 01:44:29 145.865
QB50P1 04 Aug 01:39:37 01:42:08 15° 296° (WNW) 01:44:31 145.935-145.965
AIST 2 04 Aug 01:46:42 01:50:12 24° 316° (NW) 01:53:39 435.215
ISS 04 Aug 01:49:04 01:52:10 40° 25° (NNE) 01:55:16 145.825
BEESAT 04 Aug 01:49:11 01:53:57 73° 74° (ENE) 01:58:46 436.000
KKS-1 04 Aug 01:53:06 01:55:19 14° 63° (ENE) 01:57:42 437.445
YUBILEINY 04 Aug 01:58:23 02:06:24 38° 291° (WNW) 02:14:21 435.215
SWISSCUBE 04 Aug 02:10:17 02:15:03 65° 258° (WSW) 02:19:50 437.505
JAS-2 04 Aug 02:19:17 02:20:48 11° 78° (ENE) 02:23:00 435.910
O/OREOS (USA 219) 04 Aug 02:26:10 02:30:06 28° 303° (WNW) 02:33:59 437.305
ITUPSAT 1 04 Aug 02:33:07 02:37:43 43° 262° (W) 02:42:18 437.325
STARS 04 Aug 02:52:42 02:56:36 33° 69° (ENE) 03:00:33 437.465
Gurwin Techsat 1B 04 Aug 02:59:30 03:04:31 41° 97° (E) 03:09:31 435.225
Cosmos 2504 04 Aug 02:59:48 03:06:59 83° 96° (E) 03:14:48 435.465 / 435.565
ITAMSAT 1 04 Aug 03:03:11 03:07:58 38° 97° (E) 03:12:47 435.822/435.867
MOZHAYETS 4 04 Aug 03:07:42 03:08:52 11° 61° (ENE) 03:10:18
Oscar 19 04 Aug 03:14:19 03:19:17 47° 290° (WNW) 03:24:13 437.125/150
ISS 04 Aug 03:25:38 03:28:31 29° 222° (SW) 03:31:23 145.825
KKS-1 04 Aug 03:27:06 03:31:29 64° 259° (WSW) 03:35:54 437.445
BEESAT 04 Aug 03:30:13 03:32:25 13° 272° (W) 03:34:21 436.000
RS-15 04 Aug 03:43:55 03:53:38 30° 23° (NNE) 04:03:54 29.354- 29.394
AO-7 04 Aug 03:57:46 04:04:26 27° 92° (E) 04:11:17 29.400- 29.500
JAS-2 04 Aug 03:59:49 04:07:37 61° 99° (E) 04:15:12 435.910
HORYU 2 04 Aug 04:24:19 04:28:21 32° 96° (E) 04:32:24 437.375
STARS 04 Aug 04:29:34 04:33:06 23° 266° (W) 04:36:35 437.465
Gurwin Techsat 1B 04 Aug 04:39:51 04:44:20 27° 294° (WNW) 04:48:42 435.225
MOZHAYETS 4 04 Aug 04:40:48 04:45:27 90° 271° (W) 04:50:08
ITAMSAT 1 04 Aug 04:42:57 04:47:22 28° 294° (WNW) 04:51:40 435.822/435.867
GONETS M04 04 Aug 04:45:47 04:51:42 22° 80° (E) 04:57:59
Cosmos 2504 04 Aug 04:55:13 05:00:28 20° 300° (WNW) 05:05:38 435.465 / 435.565
CUSAT 1 04 Aug 05:05:27 05:07:24 18° 287° (WNW) 05:09:16 437.405
DANDE 04 Aug 05:08:13 05:10:55 31° 283° (WNW) 05:13:20 436.750
CUBESAT XI-V 04 Aug 05:08:49 05:11:47 17° 65° (ENE) 05:14:53 437.345
JAS-2 04 Aug 05:45:24 05:52:13 33° 297° (WNW) 05:58:47 435.910
AO-7 04 Aug 05:49:41 05:57:59 70° 292° (WNW) 06:06:11 29.400- 29.500
RS-15 04 Aug 05:56:53 06:08:38 72° 52° (NE) 06:20:51 29.354- 29.394
HORYU 2 04 Aug 06:01:05 06:04:53 26° 293° (WNW) 06:08:35 437.375
Cosmos 2499 04 Aug 06:08:07 06:11:37 14° 76° (ENE) 06:15:44 435.465 / 435.565
PRISM 04 Aug 06:24:11 06:27:25 22° 67° (ENE) 06:30:44 437.425
BEESAT 2 04 Aug 06:33:19 06:35:39 15° 38° (NE) 06:38:03 435.950
CUTE-I 04 Aug 06:34:19 06:38:42 26° 93° (E) 06:43:10 437.470
GONETS M04 04 Aug 06:38:55 06:47:39 80° 280° (W) 06:56:23
CUBESAT XI-V 04 Aug 06:44:15 06:48:51 55° 261° (W) 06:53:26 437.345
STRAND 1 04 Aug 06:56:25 07:01:29 64° 73° (ENE) 07:06:36 437.568
BEESAT 3 04 Aug 07:07:26 07:11:06 32° 48° (NE) 07:14:44 437.485
Cubesat XI-IV 04 Aug 07:18:49 07:24:08 67° 101° (ESE) 07:29:26 437.490
SO-50 04 Aug 07:39:53 07:41:42 12° 108° (ESE) 07:43:48 436.795
AO-7 04 Aug 07:44:17 07:49:27 18° 312° (NW) 07:54:16 29.400- 29.500
Cosmos 2499 04 Aug 07:55:56 08:03:25 81° 96° (E) 08:11:35 435.465 / 435.565
PRISM 04 Aug 07:58:54 08:02:42 32° 263° (W) 08:06:29 437.425
PCSat 04 Aug 08:04:17 08:08:47 28° 110° (ESE) 08:13:25 145.827
DOVE 4 04 Aug 08:07:39 08:08:50 11° 87° (E) 08:10:21 437.250
RS-15 04 Aug 08:10:04 08:20:30 36° 252° (WSW) 08:30:52 29.354- 29.394
BEESAT 2 04 Aug 08:10:10 08:14:15 79° 239° (WSW) 08:18:16 435.950
CUTE-I 04 Aug 08:13:58 08:18:58 41° 291° (WNW) 08:23:53 437.470
AIST 2 04 Aug 08:28:14 08:32:11 38° 49° (NE) 08:36:05 435.215
GOMX 1 04 Aug 08:33:23 08:37:33 32° 96° (E) 08:41:59 467.674
STRAND 1 04 Aug 08:38:00 08:41:14 16° 271° (W) 08:44:15 437.568
BRITE-PL 04 Aug 08:39:52 08:44:18 62° 101° (E) 08:49:04 437.365/2234.400
GONETS M04 04 Aug 08:40:38 08:46:15 17° 303° (WNW) 08:51:25
M-CUBED/EXP-1 PRIME 04 Aug 08:40:52 08:44:19 25° 61° (ENE) 08:48:03 437.505
SEEDS 04 Aug 08:42:25 08:44:35 14° 89° (E) 08:46:56 437.485
BEESAT 3 04 Aug 08:45:33 08:48:56 25° 245° (WSW) 08:52:13 437.485
CUTE 1.7 + AOD 2 04 Aug 08:50:03 08:53:19 21° 92° (E) 08:56:40 437.475
CANX-2 04 Aug 08:58:38 09:02:24 29° 95° (E) 09:06:11 2200.000
AAUSAT CUBESAT 2 04 Aug 08:59:57 09:02:10 14° 89° (E) 09:04:34 437.432
Cubesat XI-IV 04 Aug 09:00:10 09:03:45 18° 299° (WNW) 09:07:10 437.490
AUBIESAT-1 04 Aug 09:06:16 09:10:10 38° 64° (ENE) 09:14:23 437.475
SO-50 04 Aug 09:16:49 09:21:36 84° 307° (NW) 09:26:32 436.795
UNISAT 6 04 Aug 09:17:32 09:18:58 12° 61° (ENE) 09:20:38 437.425
CINEMA 3 04 Aug 09:26:40 09:30:56 33° 96° (E) 09:35:23 145.822/145.860
HO-68 04 Aug 09:34:08 09:41:17 63° 102° (ESE) 09:48:25 435.675
CUBEBUG 2 04 Aug 09:34:59 09:38:16 19° 91° (E) 09:41:43 437.445
DOVE 4 04 Aug 09:42:29 09:47:11 82° 282° (WNW) 09:52:09 437.250
PCSat 04 Aug 09:46:51 09:52:02 44° 307° (NW) 09:57:14 145.827
Cosmos 2499 04 Aug 09:52:07 09:57:50 21° 300° (WNW) 10:03:34 435.465 / 435.565
COMPASS 1 04 Aug 09:55:35 09:59:50 72° 102° (ESE) 10:04:01 437.405
DELFI C3 04 Aug 09:56:13 09:58:54 17° 91° (E) 10:01:41 145.870
TIGRISAT 04 Aug 09:56:49 10:00:29 27° 68° (ENE) 10:04:18 435.000
ANTELSAT 04 Aug 09:59:59 10:03:49 30° 69° (ENE) 10:07:47 437.575/2403.000
AIST 2 04 Aug 10:07:15 10:10:33 22° 247° (WSW) 10:13:43 435.215
POLYITAN 1 04 Aug 10:07:19 10:09:30 14° 64° (ENE) 10:11:52 437.675
YUBILEINY 04 Aug 10:10:14 10:17:12 26° 63° (ENE) 10:24:27 435.215
GOMX 1 04 Aug 10:11:41 10:15:37 28° 291° (WNW) 10:19:41 467.674
M-CUBED/EXP-1 PRIME 04 Aug 10:15:08 10:18:56 34° 260° (W) 10:23:00 437.505
ZACube-1 04 Aug 10:16:01 10:20:01 29° 95° (E) 10:24:04 437.345
SEEDS 04 Aug 10:16:35 10:20:45 52° 287° (WNW) 10:24:53 437.485
BRITE-PL 04 Aug 10:19:57 10:22:31 15° 295° (WNW) 10:24:58 437.365/2234.400
POPSAT HIP 1 04 Aug 10:22:00 10:24:59 20° 66° (ENE) 10:28:06 437.405
CUTE 1.7 + AOD 2 04 Aug 10:25:25 10:29:21 35° 289° (WNW) 10:33:13 437.475
QB50P2 04 Aug 10:30:09 10:33:32 25° 68° (ENE) 10:37:01 145.880/145.840
AAUSAT CUBESAT 2 04 Aug 10:34:02 10:38:07 49° 287° (WNW) 10:42:09 437.432
HUMSAT D 04 Aug 10:34:17 10:37:16 18° 91° (E) 10:40:23 437.325/437.525
CANX-2 04 Aug 10:34:38 10:38:15 26° 292° (WNW) 10:41:45 2200.000
FUNcube-1 04 Aug 10:35:49 10:40:13 46° 98° (E) 10:44:38 145.935
AUBIESAT-1 04 Aug 10:41:46 10:45:03 21° 264° (W) 10:48:26 437.475
Oscar 11 04 Aug 10:42:30 10:46:54 87° 103° (ESE) 10:51:15 145.826/435.025
UKube-1 04 Aug 10:45:46 10:47:58 14° 90° (E) 10:50:22 .
UWE-3 04 Aug 10:47:29 10:52:09 82° 103° (ESE) 10:56:50 435.000/436.395/437.385
Cosmos 2491 04 Aug 10:49:07 10:54:36 20° 79° (E) 11:00:31 435.465 / 435.565
DUCHIFAT 1 04 Aug 10:50:03 10:53:53 37° 71° (ENE) 10:57:46 145.980
UNISAT 6 04 Aug 10:50:45 10:55:08 80° 259° (WSW) 10:59:39 437.425
O/OREOS (USA 219) 04 Aug 10:55:08 10:59:43 70° 65° (ENE) 11:04:19 437.305
NANOSAT C BR1 04 Aug 10:55:43 10:59:40 43° 72° (ENE) 11:03:41 145.865
QB50P1 04 Aug 10:55:58 10:59:57 44° 72° (ENE) 11:03:59 145.935-145.965
SO-50 04 Aug 10:59:45 11:02:57 17° 326° (NW) 11:06:05 436.795
50 SAT 04 Aug 11:01:15 11:03:36 15° 91° (E) 11:06:04 437.505
CINEMA 3 04 Aug 11:03:57 11:08:04 29° 291° (WNW) 11:12:12 145.822/145.860
AISAT 04 Aug 11:08:57 11:11:51 18° 91° (E) 11:14:55 437.250
CUBEBUG 2 04 Aug 11:10:42 11:15:12 47° 287° (WNW) 11:19:44 437.445
CUBEBUG 1 04 Aug 11:13:45 11:14:23 10° 87° (E) 11:15:17 437.445
DX 1 04 Aug 11:18:08 11:22:05 34° 97° (E) 11:26:04 434.975-435.025
HO-68 04 Aug 11:22:39 11:28:35 28° 300° (WNW) 11:34:21 435.675
DOVE 4 04 Aug 11:23:34 11:24:22 10° 298° (WNW) 11:24:53 437.250
DELFI C3 04 Aug 11:30:22 11:34:10 38° 289° (WNW) 11:37:54 145.870
TIGRISAT 04 Aug 11:33:20 11:37:10 29° 265° (W) 11:41:04 435.000
COMPASS 1 04 Aug 11:33:23 11:34:57 12° 297° (WNW) 11:36:19 437.405
PCSat 04 Aug 11:35:51 11:37:00 10° 331° (NNW) 11:37:58 145.827
ANTELSAT 04 Aug 11:36:52 11:40:36 26° 266° (W) 11:44:22 437.575/2403.000
POLYITAN 1 04 Aug 11:40:52 11:44:59 56° 260° (W) 11:49:09 437.675
BUGSAT 1 04 Aug 11:41:16 11:45:19 89° 78° (ENE) 11:49:22 437.445
VELOX 1 04 Aug 11:45:57 11:50:07 41° 98° (E) 11:54:18 145.980
AIST 1 04 Aug 11:46:01 11:50:11 48° 94° (E) 11:54:22
ZACube-1 04 Aug 11:52:21 11:56:19 29° 291° (WNW) 12:00:15 437.345
POPSAT HIP 1 04 Aug 11:56:42 12:00:38 38° 263° (W) 12:04:34 437.405
QB50P2 04 Aug 12:05:37 12:09:20 29° 264° (W) 12:13:02 145.880/145.840
YUBILEINY 04 Aug 12:06:13 12:15:02 73° 266° (W) 12:23:48 435.215
HUMSAT D 04 Aug 12:09:06 12:13:12 41° 288° (WNW) 12:17:16 437.325/437.525
ESTCUBE 1 04 Aug 12:11:52 12:16:18 56° 100° (E) 12:20:42 437.505/2401.250
FUNcube-1 04 Aug 12:12:54 12:16:13 20° 294° (WNW) 12:19:27 145.935
UKube-1 04 Aug 12:20:15 12:24:29 54° 288° (WNW) 12:28:42 .
Oscar 11 04 Aug 12:21:49 12:22:27 10° 299° (WNW) 12:22:52 145.826/435.025
UWE-3 04 Aug 12:26:08 12:28:06 12° 298° (WNW) 12:29:51 435.000/436.395/437.385
DUCHIFAT 1 04 Aug 12:26:46 12:29:50 19° 268° (W) 12:32:50 145.980
NANOSAT C BR1 04 Aug 12:33:02 12:35:46 16° 269° (W) 12:38:22 145.865
QB50P1 04 Aug 12:33:23 12:36:05 16° 269° (W) 12:38:38 145.935-145.965
50 SAT 04 Aug 12:34:37 12:38:24 42° 287° (WNW) 12:42:08 437.505
O/OREOS (USA 219) 04 Aug 12:36:42 12:38:38 12° 261° (W) 12:40:19 437.305
Cosmos 2491 04 Aug 12:41:40 12:50:27 87° 276° (W) 12:59:15 435.465 / 435.565
AISAT 04 Aug 12:44:29 12:48:43 45° 288° (WNW) 12:52:55 437.250
Cosmos 2504 04 Aug 12:44:37 12:51:49 31° 67° (ENE) 12:59:19 435.465 / 435.565
Gurwin Techsat 1B 04 Aug 12:46:42 12:47:31 10° 57° (ENE) 12:48:37 435.225
CUBEBUG 1 04 Aug 12:47:00 12:51:20 73° 285° (WNW) 12:55:39 437.445
Oscar 19 04 Aug 12:53:16 12:57:52 36° 68° (ENE) 13:02:33 437.125/150
DX 1 04 Aug 12:54:43 12:58:10 23° 293° (WNW) 13:01:32 434.975-435.025
TISAT 1 04 Aug 13:06:10 13:09:59 32° 97° (E) 13:13:49 437.305
SPROUT 04 Aug 13:08:42 13:12:58 59° 100° (E) 13:17:14 437.525
AO-7 04 Aug 13:13:37 13:14:23 10° 39° (NE) 13:15:38 29.400- 29.500
VELOX 1 04 Aug 13:23:08 13:26:25 20° 294° (WNW) 13:29:36 145.980
AIST 1 04 Aug 13:25:30 13:28:11 15° 292° (WNW) 13:30:42
BEESAT 04 Aug 13:49:41 13:52:44 17° 90° (E) 13:55:56 436.000
ESTCUBE 1 04 Aug 13:49:58 13:52:45 16° 296° (WNW) 13:55:23 437.505/2401.250
CUSAT 1 04 Aug 13:54:35 13:57:40 18° 72° (ENE) 14:01:30 437.405
DANDE 04 Aug 14:02:23 14:03:47 12° 70° (ENE) 14:05:33 436.750
YUBILEINY 04 Aug 14:06:08 14:10:28 14° 284° (WNW) 14:14:09 435.215
SWISSCUBE 04 Aug 14:10:02 14:14:11 30° 95° (E) 14:18:22 437.505
JAS-2 04 Aug 14:13:27 14:18:47 29° 61° (ENE) 14:24:48 435.910
Gurwin Techsat 1B 04 Aug 14:21:22 14:26:38 71° 74° (ENE) 14:31:58 435.225
ITAMSAT 1 04 Aug 14:21:52 14:27:00 64° 73° (ENE) 14:32:11 435.822/435.867
ITUPSAT 1 04 Aug 14:32:36 14:37:11 44° 99° (E) 14:41:44 437.325
Oscar 19 04 Aug 14:32:50 14:37:17 29° 265° (W) 14:41:43 437.125/150
Cosmos 2504 04 Aug 14:36:16 14:44:38 63° 267° (W) 14:53:03 435.465 / 435.565
TISAT 1 04 Aug 14:42:14 14:45:36 23° 293° (WNW) 14:48:52 437.305
Cosmos 2491 04 Aug 14:42:42 14:48:51 20° 301° (WNW) 14:54:37 435.465 / 435.565
SPROUT 04 Aug 14:46:15 14:48:37 14° 296° (WNW) 14:50:50 437.525
GONETS M04 04 Aug 14:55:25 14:57:04 11° 49° (NE) 14:59:23
AO-7 04 Aug 14:57:29 15:05:05 42° 61° (ENE) 15:12:49 29.400- 29.500
KKS-1 04 Aug 15:17:47 15:21:17 23° 93° (E) 15:24:52 437.445
HORYU 2 04 Aug 15:23:23 15:27:21 33° 69° (ENE) 15:31:25 437.375
BEESAT 04 Aug 15:26:17 15:30:57 53° 288° (WNW) 15:35:34 436.000
CUSAT 1 04 Aug 15:35:50 15:40:14 52° 262° (W) 15:46:02 437.405
DANDE 04 Aug 15:42:56 15:46:57 66° 261° (W) 15:52:23 436.750
SWISSCUBE 04 Aug 15:47:49 15:52:01 31° 292° (WNW) 15:56:09 437.505
JAS-2 04 Aug 15:57:17 16:03:25 55° 262° (W) 16:10:23 435.910
ITAMSAT 1 04 Aug 16:03:42 16:07:03 16° 271° (W) 16:10:11 435.822/435.867
Gurwin Techsat 1B 04 Aug 16:04:05 16:07:15 15° 272° (W) 16:10:10 435.225
SO-50 04 Aug 16:07:51 16:11:30 20° 38° (NE) 16:15:12 436.795
ITUPSAT 1 04 Aug 16:11:08 16:14:48 22° 295° (WNW) 16:18:20 437.325
STARS 04 Aug 16:17:08 16:21:31 58° 101° (E) 16:25:53 437.465
VERMONT LUNAR 04 Aug 16:18:43 16:19:57 12° 150° (SSE) 16:21:15 437.305
Cosmos 2504 04 Aug 16:32:32 16:35:24 12° 285° (WNW) 16:37:35 435.465 / 435.565
MOZHAYETS 4 04 Aug 16:35:54 16:39:16 20° 91° (E) 16:42:45
GONETS M04 04 Aug 16:48:04 16:56:35 55° 75° (ENE) 17:05:09
AO-7 04 Aug 16:49:46 16:57:49 49° 260° (W) 17:05:51 29.400- 29.500
PCSat 04 Aug 16:50:33 16:55:19 31° 47° (NE) 17:00:07 145.827
KKS-1 04 Aug 16:53:56 16:58:02 35° 290° (WNW) 17:02:05 437.445
HORYU 2 04 Aug 17:00:23 17:04:04 24° 266° (W) 17:07:42 437.375
Cubesat XI-IV 04 Aug 17:04:12 17:07:33 18° 61° (ENE) 17:11:06 437.490
